Regional Weather Roundup
Issued by NWS Spokane, WA

Home | Current Version | Previous Version | Text Only | Print | Product List | Glossary On
Versions: 1 2 3 4 5 6 7 8 9 10 11 12 13 14 15 16 17 18 19 20 21 22 23 24 25 26 27 28 29 30 31 32 33 34 35 36 37 38 39 40 41 42 43 44 45 46 47 48 49 50
000
NZUS01 KOTX 071810
RWROTX
EASTERN WASHINGTON/NORTHERN IDAHO ROUNDUP
NATIONAL WEATHER SERVICE, SPOKANE WA
1100 AM PDT TUE JUL 07 2015

Note: "fair" indicated few or no clouds below 12,000 feet with no
significant weather and/or obstructions to visibility.

...NORTHEAST WASHINGTON AND NORTHERN IDAHO PANHANDLE...

CITY           SKY/WX    TMP DP  RH WIND       PRES   REMARKS
SPOKANE INTL   PTSUNNY   82  50  32 NE10      29.97F
SPOKANE DOWNTO MOSUNNY   85  50  29 E14       29.97S
COEUR D ALENE  PTSUNNY   77  77 100 NE10      29.99S
DEER PARK      MOSUNNY   80  50  34 E13G24    29.99S
SANDPOINT      PTSUNNY   77  52  41 N16       30.02F
BONNERS FERRY  FAIR      72  55  56 SE5       30.06F

...SOUTHEAST WASHINGTON AND SOUTHERN IDAHO PANHANDLE...

CITY           SKY/WX    TMP DP  RH WIND       PRES   REMARKS
WALLA WALLA    MOSUNNY   90  49  24 SW9G21    29.90F
PULLMAN/MOSCOW SUNNY     83  50  31 W9        30.00S
LEWISTON       MOSUNNY   87  47  24 SE6       29.91F
LOWELL           N/A     82  51  34 CALM      29.94F

...COLUMBIA BASIN...

CITY           SKY/WX    TMP DP  RH WIND       PRES   REMARKS
EPHRATA        SUNNY     89  47  23 N5G17     29.88F
MOSES LAKE     SUNNY     90  45  21 NW9       29.89S
TRI CITIES     SUNNY     92  50  23 VRB5      29.86F
HERMISTON      SUNNY     88  54  31 W12       29.88F
PENDLETON      SUNNY     88  45  22 W13G21    29.93F

...EAST SLOPES CASCADES...

CITY           SKY/WX    TMP DP  RH WIND       PRES   REMARKS
THE DALLES     MOSUNNY   85  54  34 NW18      29.89F
YAKIMA         SUNNY     92  48  22 NE7       29.89F
ELLENSBURG     SUNNY     89  45  21 NW16      29.92F
WENATCHEE      SUNNY     90  39  16 NW12      29.89F
OMAK           MOSUNNY   88  44  21 N16       29.91S HAZE

...SOUTHERN BRITISH COLUMBIA...

CITY           SKY/WX    TMP DP  RH WIND       PRES   REMARKS
PENTICTON      PTSUNNY   82  52  34 NW12      29.94F
CRANBROOK      MOSUNNY   75  43  31 S7        30.09F

...WESTERN MONTANA...

CITY           SKY/WX    TMP DP  RH WIND       PRES   REMARKS
MISSOULA       MOSUNNY   76  45  33 N20G30    30.06F

...NEIGHBORING CITIES...

CITY           SKY/WX    TMP DP  RH WIND       PRES   REMARKS
SEATTLE        MOSUNNY   66  54  65 SW6       30.05F
CALGARY        PTSUNNY   63  52  67 E9        30.19S



USA.gov is the U.S. government's official web portal to all federal, state and local government web resources and services.